TimeCST,TemperatureF,Dew PointF,Humidity,Sea Level PressureIn,VisibilityMPH,Wind Direction,Wind SpeedMPH,Gust SpeedMPH,PrecipitationIn,Events,Conditions,WindDirDegrees,DateUTC
12:15 AM,44.1,29.8,57,30.21,10.0,South,12.7,-,N/A,,Scattered Clouds,170,2012-11-15 06:15:00
12:35 AM,44.1,29.8,57,30.20,10.0,South,15.0,-,N/A,,Mostly Cloudy,170,2012-11-15 06:35:00
12:55 AM,43.7,29.8,58,30.20,10.0,South,13.8,-,N/A,,Scattered Clouds,170,2012-11-15 06:55:00
1:15 AM,43.7,29.7,58,30.19,10.0,South,12.7,-,N/A,,Scattered Clouds,170,2012-11-15 07:15:00
1:35 AM,43.7,29.7,58,30.19,10.0,South,11.5,-,N/A,,Mostly Cloudy,170,2012-11-15 07:35:00
1:55 AM,43.7,29.7,58,30.19,10.0,South,11.5,-,N/A,,Mostly Cloudy,170,2012-11-15 07:55:00
2:15 AM,43.5,29.8,59,30.19,10.0,SSE,10.4,-,N/A,,Overcast,160,2012-11-15 08:15:00
2:35 AM,43.5,29.5,58,30.20,10.0,SSE,4.6,-,N/A,,Overcast,150,2012-11-15 08:35:00
2:55 AM,43.0,29.8,60,30.20,10.0,SSE,8.1,-,N/A,,Overcast,160,2012-11-15 08:55:00
3:15 AM,42.6,30.0,61,30.19,10.0,South,8.1,-,N/A,,Overcast,170,2012-11-15 09:15:00
3:35 AM,41.9,30.2,63,30.20,10.0,South,3.5,-,N/A,,Overcast,180,2012-11-15 09:35:00
3:55 AM,41.9,30.2,63,30.20,10.0,SSE,4.6,-,N/A,,Overcast,160,2012-11-15 09:55:00
4:15 AM,41.9,30.2,63,30.20,10.0,SSE,5.8,-,N/A,,Overcast,160,2012-11-15 10:15:00
4:35 AM,41.9,30.6,64,30.20,10.0,SE,4.6,-,N/A,,Overcast,140,2012-11-15 10:35:00
4:55 AM,41.9,30.6,64,30.20,10.0,SSE,4.6,-,N/A,,Overcast,150,2012-11-15 10:55:00
5:15 AM,41.5,30.9,66,30.21,10.0,SSE,5.8,-,N/A,,Overcast,160,2012-11-15 11:15:00
5:35 AM,41.2,31.1,67,30.21,10.0,SSE,3.5,-,N/A,,Overcast,150,2012-11-15 11:35:00
5:55 AM,41.0,31.1,68,30.22,10.0,Calm,Calm,-,N/A,,Overcast,0,2012-11-15 11:55:00
6:15 AM,40.3,31.5,71,30.23,10.0,Calm,Calm,-,N/A,,Mostly Cloudy,0,2012-11-15 12:15:00
6:35 AM,40.5,31.6,71,30.22,10.0,South,5.8,-,N/A,,Mostly Cloudy,170,2012-11-15 12:35:00
6:55 AM,40.5,32.0,72,30.23,10.0,South,8.1,-,N/A,,Overcast,170,2012-11-15 12:55:00
7:15 AM,41.4,32.0,69,30.24,10.0,South,6.9,-,N/A,,Overcast,190,2012-11-15 13:15:00
7:35 AM,41.9,31.8,67,30.25,10.0,SSW,5.8,-,N/A,,Overcast,210,2012-11-15 13:35:00
7:55 AM,42.3,32.0,67,30.25,10.0,SW,5.8,-,N/A,,Overcast,230,2012-11-15 13:55:00
8:15 AM,43.5,31.8,63,30.26,10.0,WSW,8.1,-,N/A,,Overcast,250,2012-11-15 14:15:00
8:35 AM,43.9,32.0,63,30.26,10.0,WSW,4.6,-,N/A,,Overcast,250,2012-11-15 14:35:00
8:55 AM,44.6,32.5,63,30.26,10.0,WNW,4.6,-,N/A,,Overcast,290,2012-11-15 14:55:00
9:15 AM,45.7,32.4,60,30.27,10.0,WNW,3.5,-,N/A,,Overcast,300,2012-11-15 15:15:00
9:35 AM,46.0,32.5,59,30.28,10.0,NNW,3.5,-,N/A,,Scattered Clouds,330,2012-11-15 15:35:00
9:55 AM,46.4,32.2,58,30.28,10.0,NW,4.6,-,N/A,,Scattered Clouds,320,2012-11-15 15:55:00
10:15 AM,47.5,32.5,56,30.29,10.0,NW,5.8,-,N/A,,Clear,310,2012-11-15 16:15:00
10:35 AM,50.7,33.1,51,30.30,10.0,NW,8.1,-,N/A,,Clear,320,2012-11-15 16:35:00
10:55 AM,52.3,32.0,46,30.30,10.0,NNW,10.4,-,N/A,,Clear,340,2012-11-15 16:55:00
11:15 AM,52.2,31.1,45,30.30,10.0,North,8.1,-,N/A,,Clear,350,2012-11-15 17:15:00
11:35 AM,52.7,32.0,45,30.30,10.0,North,5.8,-,N/A,,Clear,350,2012-11-15 17:35:00
11:55 AM,53.6,32.2,44,30.30,10.0,NNW,6.9,-,N/A,,Clear,340,2012-11-15 17:55:00
12:15 PM,55.0,32.5,43,30.30,10.0,North,5.8,-,N/A,,Clear,10,2012-11-15 18:15:00
12:35 PM,56.1,31.6,39,30.30,10.0,North,6.9,-,N/A,,Clear,360,2012-11-15 18:35:00
12:55 PM,58.1,30.9,36,30.29,10.0,North,4.6,-,N/A,,Clear,360,2012-11-15 18:55:00
1:15 PM,59.5,30.7,34,30.29,10.0,North,11.5,-,N/A,,Clear,10,2012-11-15 19:15:00
1:35 PM,59.9,30.0,32,30.29,10.0,North,9.2,-,N/A,,Clear,10,2012-11-15 19:35:00
1:55 PM,59.9,28.8,31,30.29,10.0,North,10.4,16.1,N/A,,Clear,360,2012-11-15 19:55:00
2:15 PM,59.9,29.1,31,30.28,10.0,North,9.2,-,N/A,,Clear,360,2012-11-15 20:15:00
2:35 PM,59.9,29.1,31,30.29,10.0,North,9.2,-,N/A,,Clear,360,2012-11-15 20:35:00
2:55 PM,59.5,29.1,32,30.29,10.0,North,5.8,-,N/A,,Clear,360,2012-11-15 20:55:00
3:15 PM,59.0,29.1,32,30.30,10.0,North,10.4,-,N/A,,Clear,10,2012-11-15 21:15:00
3:35 PM,58.6,29.1,33,30.30,10.0,North,4.6,-,N/A,,Clear,350,2012-11-15 21:35:00
3:55 PM,57.9,29.5,34,30.31,10.0,North,6.9,-,N/A,,Clear,360,2012-11-15 21:55:00
4:15 PM,57.2,29.7,35,30.31,10.0,North,8.1,-,N/A,,Clear,360,2012-11-15 22:15:00
4:35 PM,55.4,30.9,39,30.32,10.0,North,3.5,-,N/A,,Clear,350,2012-11-15 22:35:00
4:55 PM,53.1,31.1,43,30.33,10.0,Calm,Calm,-,N/A,,Clear,0,2012-11-15 22:55:00
5:15 PM,51.8,30.7,45,30.33,10.0,Calm,Calm,-,N/A,,Clear,0,2012-11-15 23:15:00
5:35 PM,49.5,30.2,48,30.33,10.0,NNW,3.5,-,N/A,,Clear,330,2012-11-15 23:35:00
5:55 PM,46.8,30.2,53,30.34,10.0,NNW,4.6,-,N/A,,Clear,330,2012-11-15 23:55:00
6:15 PM,45.5,30.2,55,30.35,10.0,NNW,4.6,-,N/A,,Clear,330,2012-11-16 00:15:00
6:35 PM,46.8,30.2,53,30.36,10.0,NNW,3.5,-,N/A,,Clear,340,2012-11-16 00:35:00
6:55 PM,46.9,30.2,52,30.36,10.0,NNW,4.6,-,N/A,,Clear,340,2012-11-16 00:55:00
7:15 PM,45.9,31.1,56,30.37,10.0,North,4.6,-,N/A,,Clear,350,2012-11-16 01:15:00
7:35 PM,45.7,32.0,59,30.38,10.0,North,6.9,-,N/A,,Clear,350,2012-11-16 01:35:00
7:55 PM,45.5,32.4,60,30.38,10.0,North,4.6,-,N/A,,Clear,350,2012-11-16 01:55:00
9:15 PM,42.8,32.0,66,30.40,10.0,NNW,4.6,-,N/A,,Clear,340,2012-11-16 03:15:00
9:35 PM,41.4,32.0,69,30.41,10.0,Calm,Calm,-,N/A,,Clear,0,2012-11-16 03:35:00
9:55 PM,41.4,31.8,69,30.41,10.0,Calm,Calm,-,N/A,,Clear,0,2012-11-16 03:55:00
10:15 PM,39.7,31.6,73,30.41,10.0,North,3.5,-,N/A,,Clear,350,2012-11-16 04:15:00
10:35 PM,40.1,31.8,72,30.41,10.0,North,3.5,-,N/A,,Clear,350,2012-11-16 04:35:00
10:55 PM,40.3,31.5,71,30.42,10.0,Calm,Calm,-,N/A,,Clear,0,2012-11-16 04:55:00
11:15 PM,39.2,31.6,74,30.43,10.0,North,4.6,-,N/A,,Clear,350,2012-11-16 05:15:00
11:35 PM,38.5,31.3,75,30.43,10.0,North,3.5,-,N/A,,Clear,360,2012-11-16 05:35:00
11:55 PM,37.4,31.1,78,30.43,10.0,North,3.5,-,N/A,,Clear,360,2012-11-16 05:55:00